| time (UTC) | temp F | wind direction | speed knots | gust knots | rain 1hr in | rain 24hr in | rain mn in | humidity % | barometer mb |
| 20260503215111 | 82 | 73 | 3.5 | 8.7 | 0.00 | 0.01 | 0.00 | 27 | 1009.1 |
| 20260503214356 | 82 | 65 | 4.3 | 10.4 | 0.00 | 0.01 | 0.00 | 30 | 1009.1 |
| 20260503214111 | 81 | 0 | 5.2 | 10.4 | 0.00 | 0.01 | 0.00 | 29 | 1009.2 |
| 20260503213609 | 81 | 355 | 5.2 | 10.4 | 0.00 | 0.01 | 0.00 | 30 | 1009.2 |
| 20260503213355 | 81 | 355 | 5.2 | 10.4 | 0.00 | 0.01 | 0.00 | 30 | 1009.2 |
| 20260503212902 | 81 | 44 | 5.2 | 9.6 | 0.00 | 0.01 | 0.00 | 29 | 1009.3 |
| 20260503212346 | 81 | 281 | 5.2 | 11.3 | 0.00 | 0.01 | 0.00 | 30 | 1009.4 |
| 20260503211846 | 81 | 46 | 4.3 | 11.3 | 0.00 | 0.01 | 0.00 | 31 | 1009.4 |
| 20260503211346 | 81 | 327 | 3.5 | 10.4 | 0.00 | 0.01 | 0.00 | 31 | 1009.5 |
| 20260503210847 | 80 | 50 | 3.5 | 10.4 | 0.00 | 0.01 | 0.00 | 32 | 1009.6 |
| 20260503210346 | 80 | 338 | 4.3 | 10.4 | 0.00 | 0.01 | 0.00 | 33 | 1009.6 |
| 20260503205846 | 79 | 331 | 4.3 | 10.4 | 0.00 | 0.01 | 0.00 | 33 | 1009.7 |
| 20260503205346 | 79 | 23 | 3.5 | 9.6 | 0.00 | 0.01 | 0.00 | 33 | 1009.7 |
| 20260503204846 | 79 | 355 | 4.3 | 10.4 | 0.00 | 0.01 | 0.00 | 32 | 1009.8 |
| 20260503204344 | 79 | 315 | 4.3 | 10.4 | 0.00 | 0.01 | 0.00 | 32 | 1009.8 |
| 20260503203843 | 79 | 23 | 3.5 | 7.8 | 0.00 | 0.01 | 0.00 | 34 | 1009.8 |
| 20260503203342 | 79 | 355 | 3.5 | 8.7 | 0.00 | 0.01 | 0.00 | 34 | 1009.9 |
| 20260503202841 | 79 | 334 | 3.5 | 8.7 | 0.00 | 0.01 | 0.00 | 33 | 1009.9 |
| 20260503202340 | 79 | 348 | 2.6 | 8.7 | 0.00 | 0.01 | 0.00 | 34 | 1010.2 |
| 20260503201840 | 79 | 355 | 2.6 | 7.0 | 0.00 | 0.01 | 0.00 | 35 | 1010.2 |
| 20260503201340 | 78 | 75 | 2.6 | 7.0 | 0.00 | 0.01 | 0.00 | 34 | 1010.3 |
| 20260503200841 | 78 | 333 | 2.6 | 7.0 | 0.00 | 0.01 | 0.00 | 34 | 1010.4 |
| 20260503200601 | 77 | 26 | 3.5 | 8.7 | 0.00 | 0.01 | 0.00 | 35 | 1010.5 |
| 20260503195912 | 78 | 314 | 3.5 | 7.0 | 0.00 | 0.01 | 0.00 | 35 | 1010.6 |
| 20260503195907 | 77 | 331 | 3.5 | 8.7 | 0.00 | 0.01 | 0.00 | 35 | 1010.5 |
| 20260503194839 | 78 | 0 | 3.5 | 7.0 | 0.00 | 0.01 | 0.00 | 34 | 1010.7 |
| 20260503194340 | 77 | 80 | 2.6 | 7.0 | 0.00 | 0.01 | 0.00 | 36 | 1010.8 |
| 20260503193837 | 77 | 34 | 1.7 | 7.0 | 0.00 | 0.01 | 0.00 | 37 | 1010.7 |
| 20260503193337 | 76 | 85 | 2.6 | 5.2 | 0.00 | 0.01 | 0.00 | 36 | 1010.9 |
| 20260503193112 | 75 | 67 | 2.6 | 7.0 | 0.00 | 0.01 | 0.00 | 38 | 1010.9 |
| 20260503192348 | 75 | 314 | 1.7 | 6.1 | 0.00 | 0.01 | 0.00 | 37 | 1011.1 |
| 20260503192344 | 75 | 321 | 2.6 | 7.0 | 0.00 | 0.01 | 0.00 | 38 | 1011.0 |
| 20260503191317 | 74 | 0 | 1.7 | 5.2 | 0.00 | 0.01 | 0.00 | 39 | 1011.1 |
| 20260503190811 | 74 | 350 | 2.6 | 7.0 | 0.00 | 0.01 | 0.00 | 37 | 1011.3 |
| 20260503190306 | 74 | 331 | 2.6 | 7.0 | 0.00 | 0.01 | 0.00 | 40 | 1011.3 |
| 20260503185759 | 74 | 348 | 2.6 | 7.8 | 0.00 | 0.01 | 0.00 | 39 | 1011.5 |
| 20260503185519 | 73 | 350 | 2.6 | 7.8 | 0.00 | 0.01 | 0.00 | 40 | 1011.5 |
| 20260503185020 | 73 | 349 | 2.6 | 7.0 | 0.00 | 0.01 | 0.00 | 43 | 1011.6 |
| 20260503184241 | 73 | 5 | 1.7 | 7.0 | 0.00 | 0.01 | 0.00 | 41 | 1011.6 |
| 20260503183735 | 72 | 43 | 2.6 | 5.2 | 0.00 | 0.01 | 0.00 | 42 | 1011.7 |
| 20260503183232 | 72 | 5 | 2.6 | 7.0 | 0.00 | 0.01 | 0.00 | 42 | 1011.8 |
| 20260503182723 | 72 | 294 | 2.6 | 7.0 | 0.00 | 0.01 | 0.00 | 42 | 1011.9 |
| 20260503182217 | 72 | 23 | 1.7 | 5.2 | 0.00 | 0.01 | 0.00 | 43 | 1012.0 |
| 20260503181711 | 71 | 64 | 1.7 | 4.3 | 0.00 | 0.01 | 0.00 | 43 | 1012.0 |
| 20260503181205 | 71 | 76 | 1.7 | 5.2 | 0.00 | 0.01 | 0.00 | 43 | 1012.0 |
| 20260503180659 | 71 | 355 | 2.6 | 5.2 | 0.00 | 0.01 | 0.00 | 43 | 1012.2 |
| 20260503180154 | 70 | 330 | 2.6 | 7.0 | 0.00 | 0.01 | 0.00 | 43 | 1012.1 |
| 20260503175647 | 70 | 50 | 1.7 | 7.0 | 0.00 | 0.01 | 0.00 | 43 | 1012.1 |
| 20260503175142 | 70 | 53 | 0.9 | 4.3 | 0.00 | 0.01 | 0.00 | 45 | 1012.3 |
| 20260503174640 | 69 | 340 | 1.7 | 5.2 | 0.00 | 0.01 | 0.00 | 46 | 1012.2 |
| 20260503174129 | 69 | 10 | 1.7 | 5.2 | 0.00 | 0.01 | 0.00 | 45 | 1012.2 |
| 20260503173623 | 69 | 350 | 1.7 | 7.0 | 0.00 | 0.01 | 0.00 | 44 | 1012.2 |
| 20260503173118 | 68 | 344 | 2.6 | 7.0 | 0.00 | 0.01 | 0.00 | 46 | 1012.2 |
| 20260503172846 | 68 | 15 | 2.6 | 6.1 | 0.00 | 0.01 | 0.00 | 47 | 1012.2 |
| 20260503172340 | 68 | 27 | 1.7 | 6.1 | 0.00 | 0.01 | 0.00 | 47 | 1012.2 |
| 20260503171559 | 67 | 355 | 1.7 | 6.1 | 0.00 | 0.01 | 0.00 | 46 | 1012.2 |
| 20260503171327 | 67 | 345 | 1.7 | 5.2 | 0.00 | 0.01 | 0.00 | 49 | 1012.2 |
| 20260503170825 | 66 | 74 | 1.7 | 3.5 | 0.00 | 0.01 | 0.00 | 49 | 1012.2 |
| 20260503150930 | 54 | 142 | 1.7 | 3.5 | 0.00 | 0.01 | 0.00 | 69 | 1012.8 |
| 20260503150427 | 53 | 136 | 0.9 | 2.6 | 0.00 | 0.01 | 0.00 | 70 | 1012.8 |
| 20260503130745 | 45 | 173 | 0.0 | 0.0 | 0.00 | 0.01 | 0.00 | 84 | 1012.4 |
| 20260503130238 | 45 | 173 | 0.0 | 0.0 | 0.00 | 0.01 | 0.00 | 85 | 1012.3 |
| 20260503120127 | 46 | 173 | 0.0 | 0.0 | 0.00 | 0.01 | 0.00 | 83 | 1012.2 |
| 20260503110112 | 48 | 173 | 0.0 | 1.7 | 0.00 | 0.01 | 0.00 | 75 | 1012.3 |
| 20260503090107 | 53 | 181 | 1.7 | 5.2 | 0.00 | 0.01 | 0.00 | 70 | 1012.3 |
| 20260503081526 | 53 | 139 | 1.7 | 3.5 | 0.00 | 0.01 | 0.00 | 70 | 1012.1 |
| 20260503081019 | 53 | 124 | 1.7 | 5.2 | 0.00 | 0.01 | 0.00 | 69 | 1012.0 |
| 20260503080513 | 53 | 121 | 1.7 | 5.2 | 0.00 | 0.01 | 0.00 | 69 | 1012.1 |
| 20260503072931 | 54 | 146 | 0.0 | 2.6 | 0.00 | 0.01 | 0.00 | 67 | 1012.4 |
| 20260503072718 | 55 | 146 | 0.0 | 0.9 | 0.00 | 0.01 | 0.00 | 66 | 1012.4 |
| 20260503071917 | 55 | 146 | 0.9 | 3.5 | 0.00 | 0.01 | 0.00 | 66 | 1012.4 |
| 20260503071411 | 55 | 146 | 1.7 | 3.5 | 0.00 | 0.01 | 0.00 | 66 | 1012.4 |
| 20260503070905 | 55 | 163 | 1.7 | 3.5 | 0.00 | 0.01 | 0.00 | 66 | 1012.6 |
| 20260503070400 | 55 | 167 | 0.9 | 3.5 | 0.00 | 0.01 | 0.00 | 65 | 1012.4 |
| 20260503060307 | 58 | 186 | 2.6 | 4.3 | 0.00 | 0.01 | 0.01 | 59 | 1012.3 |
| 20260503054807 | 59 | 139 | 0.9 | 3.5 | 0.00 | 0.01 | 0.01 | 59 | 1012.2 |
| 20260503054311 | 59 | 170 | 0.9 | 3.5 | 0.00 | 0.01 | 0.01 | 59 | 1012.2 |
| 20260503053812 | 59 | 171 | 0.9 | 4.3 | 0.00 | 0.01 | 0.01 | 59 | 1012.2 |
| 20260503053307 | 60 | 171 | 1.7 | 4.3 | 0.00 | 0.01 | 0.01 | 58 | 1012.0 |
| 20260503052808 | 60 | 231 | 1.7 | 4.3 | 0.00 | 0.01 | 0.01 | 56 | 1011.9 |
| 20260503052308 | 60 | 292 | 1.7 | 4.3 | 0.00 | 0.01 | 0.01 | 56 | 1011.9 |
| 20260503051807 | 60 | 297 | 1.7 | 4.3 | 0.00 | 0.01 | 0.01 | 55 | 1011.8 |
| 20260503051308 | 60 | 315 | 1.7 | 5.2 | 0.00 | 0.01 | 0.01 | 56 | 1011.8 |
| 20260503050808 | 60 | 287 | 2.6 | 7.0 | 0.00 | 0.01 | 0.01 | 56 | 1011.9 |
| 20260503050311 | 60 | 269 | 2.6 | 7.0 | 0.00 | 0.01 | 0.01 | 56 | 1011.9 |
| 20260503050058 | 60 | 273 | 2.6 | 7.0 | 0.00 | 0.01 | 0.01 | 56 | 1011.8 |
| 20260503045305 | 60 | 298 | 3.5 | 7.0 | 0.00 | 0.01 | 0.01 | 57 | 1011.8 |
| 20260503045043 | 60 | 257 | 2.6 | 6.1 | 0.00 | 0.01 | 0.01 | 56 | 1011.8 |
| 20260503044259 | 60 | 287 | 2.6 | 5.2 | 0.00 | 0.01 | 0.01 | 57 | 1011.8 |
| 20260503044027 | 60 | 277 | 2.6 | 6.1 | 0.00 | 0.01 | 0.01 | 57 | 1011.7 |
| 20260503043258 | 60 | 271 | 2.6 | 7.0 | 0.00 | 0.01 | 0.01 | 58 | 1011.6 |
| 20260503042757 | 60 | 277 | 3.5 | 7.0 | 0.00 | 0.01 | 0.01 | 59 | 1011.8 |
| 20260503042305 | 60 | 296 | 3.5 | 7.0 | 0.00 | 0.01 | 0.01 | 59 | 1011.6 |
| 20260503042300 | 60 | 271 | 3.5 | 7.0 | 0.00 | 0.01 | 0.01 | 59 | 1011.8 |
| 20260503041257 | 60 | 289 | 2.6 | 7.0 | 0.00 | 0.01 | 0.01 | 60 | 1011.6 |
| 20260503041019 | 60 | 323 | 2.6 | 4.3 | 0.00 | 0.01 | 0.01 | 61 | 1011.5 |
| 20260503040537 | 59 | 284 | 2.6 | 5.2 | 0.00 | 0.01 | 0.01 | 61 | 1011.5 |
| 20260503035755 | 60 | 296 | 1.7 | 5.2 | 0.00 | 0.01 | 0.01 | 62 | 1011.5 |
| 20260503035254 | 60 | 293 | 1.7 | 5.2 | 0.00 | 0.01 | 0.01 | 62 | 1011.5 |
| 20260503034749 | 60 | 279 | 2.6 | 6.1 | 0.00 | 0.01 | 0.01 | 62 | 1011.5 |
| 20260503034249 | 60 | 296 | 2.6 | 6.1 | 0.00 | 0.01 | 0.01 | 62 | 1011.5 |
| 20260503034014 | 60 | 288 | 1.7 | 3.5 | 0.00 | 0.01 | 0.01 | 61 | 1011.6 |
| 20260503033757 | 60 | 288 | 1.7 | 3.5 | 0.00 | 0.01 | 0.01 | 61 | 1011.6 |
| 20260503033249 | 60 | 293 | 1.7 | 3.5 | 0.00 | 0.01 | 0.01 | 61 | 1011.4 |
| 20260503032749 | 60 | 294 | 2.6 | 3.5 | 0.00 | 0.01 | 0.01 | 61 | 1011.4 |
| 20260503032248 | 60 | 290 | 2.6 | 4.3 | 0.00 | 0.01 | 0.01 | 61 | 1011.3 |
| 20260503031749 | 61 | 302 | 2.6 | 5.2 | 0.00 | 0.01 | 0.01 | 61 | 1011.3 |
| 20260503031249 | 61 | 303 | 2.6 | 5.2 | 0.00 | 0.01 | 0.01 | 61 | 1011.1 |
| 20260503030749 | 61 | 301 | 2.6 | 6.1 | 0.00 | 0.01 | 0.01 | 60 | 1011.1 |
| 20260503030249 | 61 | 287 | 1.7 | 6.1 | 0.00 | 0.01 | 0.01 | 61 | 1011.0 |
| 20260503025749 | 61 | 298 | 1.7 | 3.5 | 0.00 | 0.01 | 0.01 | 60 | 1011.1 |
| 20260503025259 | 62 | 305 | 0.9 | 2.6 | 0.00 | 0.01 | 0.01 | 60 | 1011.1 |
| 20260503025025 | 62 | 304 | 1.7 | 3.5 | 0.00 | 0.01 | 0.01 | 59 | 1011.1 |
| 20260503024247 | 62 | 309 | 1.7 | 5.2 | 0.00 | 0.01 | 0.01 | 59 | 1011.1 |
| 20260503023746 | 62 | 324 | 2.6 | 5.2 | 0.00 | 0.01 | 0.01 | 58 | 1010.8 |
| 20260503023247 | 62 | 332 | 2.6 | 7.8 | 0.00 | 0.01 | 0.01 | 58 | 1010.8 |
| 20260503022745 | 63 | 317 | 3.5 | 7.8 | 0.00 | 0.01 | 0.01 | 57 | 1010.8 |
| 20260503022246 | 63 | 314 | 3.5 | 9.6 | 0.00 | 0.01 | 0.01 | 58 | 1010.7 |
| 20260503021741 | 63 | 332 | 2.6 | 9.6 | 0.00 | 0.01 | 0.01 | 57 | 1010.7 |
| 20260503021242 | 63 | 342 | 2.6 | 8.7 | 0.00 | 0.01 | 0.01 | 58 | 1010.7 |
| 20260503020741 | 63 | 15 | 3.5 | 8.7 | 0.00 | 0.01 | 0.01 | 58 | 1010.7 |
| 20260503020523 | 63 | 315 | 2.6 | 7.8 | 0.00 | 0.01 | 0.01 | 57 | 1010.5 |
| 20260503015741 | 63 | 355 | 2.6 | 7.8 | 0.00 | 0.01 | 0.01 | 59 | 1010.5 |
| 20260503015301 | 63 | 338 | 3.5 | 9.6 | 0.00 | 0.01 | 0.01 | 59 | 1010.6 |
| 20260503014749 | 62 | 15 | 4.3 | 13.0 | 0.00 | 0.01 | 0.01 | 58 | 1010.4 |
| 20260503014248 | 63 | 342 | 4.3 | 13.0 | 0.01 | 0.01 | 0.01 | 59 | 1010.5 |
| 20260503013741 | 63 | 349 | 6.1 | 12.2 | 0.01 | 0.01 | 0.01 | 59 | 1010.4 |
| 20260503013237 | 63 | 355 | 6.1 | 12.2 | 0.01 | 0.01 | 0.01 | 58 | 1010.3 |
| 20260503012731 | 63 | 331 | 6.1 | 11.3 | 0.01 | 0.01 | 0.01 | 58 | 1010.2 |
| 20260503012226 | 63 | 305 | 7.0 | 13.9 | 0.01 | 0.01 | 0.01 | 58 | 1010.3 |
| 20260503011959 | 63 | 344 | 6.1 | 13.9 | 0.01 | 0.01 | 0.01 | 57 | 1010.3 |
| 20260503011215 | 63 | 355 | 5.2 | 11.3 | 0.01 | 0.01 | 0.01 | 60 | 1010.3 |
| 20260503010708 | 63 | 348 | 6.1 | 11.3 | 0.01 | 0.01 | 0.01 | 60 | 1010.5 |
| 20260503010203 | 63 | 355 | 5.2 | 10.4 | 0.01 | 0.01 | 0.01 | 60 | 1010.5 |
| 20260503005659 | 63 | 348 | 4.3 | 10.4 | 0.01 | 0.01 | 0.01 | 61 | 1010.3 |
| 20260503005148 | 63 | 355 | 4.3 | 9.6 | 0.01 | 0.01 | 0.01 | 61 | 1010.2 |
| 20260503004641 | 64 | 28 | 2.6 | 8.7 | 0.01 | 0.01 | 0.01 | 61 | 1010.3 |
| 20260503004135 | 64 | 351 | 3.5 | 8.7 | 0.00 | 0.00 | 0.00 | 55 | 1011.0 |
| 20260503003632 | 65 | 26 | 3.5 | 10.4 | 0.00 | 0.00 | 0.00 | 53 | 1011.1 |
| 20260503003123 | 65 | 291 | 5.2 | 14.8 | 0.00 | 0.00 | 0.00 | 47 | 1011.3 |
| 20260503002614 | 66 | 277 | 7.0 | 14.8 | 0.00 | 0.00 | 0.00 | 52 | 1011.9 |
| 20260503002111 | 67 | 215 | 6.1 | 13.9 | 0.00 | 0.00 | 0.00 | 47 | 1011.1 |
| 20260503001610 | 67 | 209 | 6.1 | 13.9 | 0.00 | 0.00 | 0.00 | 44 | 1010.8 |
| 20260503001110 | 69 | 257 | 5.2 | 10.4 | 0.00 | 0.00 | 0.00 | 41 | 1010.7 |
| 20260503000610 | 70 | 205 | 5.2 | 12.2 | 0.00 | 0.00 | 0.00 | 38 | 1010.5 |
| 20260503000110 | 73 | 216 | 3.5 | 12.2 | 0.00 | 0.00 | 0.00 | 34 | 1010.6 |
| 20260502235610 | 74 | 229 | 2.6 | 7.0 | 0.00 | 0.00 | 0.00 | 30 | 1010.4 |
| 20260502235109 | 74 | 321 | 3.5 | 8.7 | 0.00 | 0.00 | 0.00 | 31 | 1009.8 |
| 20260502234607 | 74 | 319 | 4.3 | 8.7 | 0.00 | 0.00 | 0.00 | 30 | 1009.6 |
| 20260502234106 | 74 | 329 | 4.3 | 11.3 | 0.00 | 0.00 | 0.00 | 30 | 1009.4 |
| 20260502233607 | 74 | 336 | 5.2 | 11.3 | 0.00 | 0.00 | 0.00 | 30 | 1009.5 |
| 20260502233113 | 74 | 30 | 5.2 | 12.2 | 0.00 | 0.00 | 0.00 | 29 | 1009.5 |
| 20260502232605 | 75 | 9 | 5.2 | 12.2 | 0.00 | 0.00 | 0.00 | 29 | 1009.5 |
| 20260502232105 | 75 | 355 | 4.3 | 11.3 | 0.00 | 0.00 | 0.00 | 30 | 1009.4 |
| 20260502231602 | 75 | 346 | 4.3 | 11.3 | 0.00 | 0.00 | 0.00 | 30 | 1009.5 |
| 20260502231107 | 74 | 348 | 4.3 | 12.2 | 0.00 | 0.00 | 0.00 | 31 | 1009.5 |
| 20260502230603 | 74 | 355 | 5.2 | 12.2 | 0.00 | 0.00 | 0.00 | 31 | 1009.5 |
| 20260502230100 | 74 | 46 | 6.1 | 12.2 | 0.00 | 0.00 | 0.00 | 30 | 1009.6 |
| 20260502225844 | 74 | 9 | 5.2 | 12.2 | 0.00 | 0.00 | 0.00 | 30 | 1009.6 |
| 20260502225056 | 74 | 345 | 4.3 | 12.2 | 0.00 | 0.00 | 0.00 | 30 | 1009.7 |
| 20260502224616 | 75 | 5 | 4.3 | 10.4 | 0.00 | 0.00 | 0.00 | 32 | 1009.8 |
| 20260502224612 | 75 | 17 | 4.3 | 10.4 | 0.00 | 0.00 | 0.00 | 32 | 1009.7 |
| 20260502223811 | 75 | 348 | 4.3 | 7.8 | 0.00 | 0.00 | 0.00 | 32 | 1009.7 |
| 20260502223049 | 75 | 340 | 3.5 | 9.6 | 0.00 | 0.00 | 0.00 | 33 | 1009.7 |
| 20260502222549 | 75 | 51 | 4.3 | 11.3 | 0.00 | 0.00 | 0.00 | 34 | 1009.8 |
| 20260502222049 | 75 | 314 | 4.3 | 11.3 | 0.00 | 0.00 | 0.00 | 33 | 1009.8 |
| 20260502221805 | 75 | 339 | 5.2 | 13.9 | 0.00 | 0.00 | 0.00 | 33 | 1009.9 |
| 20260502221049 | 75 | 355 | 6.1 | 13.9 | 0.00 | 0.00 | 0.00 | 34 | 1009.9 |
| 20260502220548 | 76 | 338 | 5.2 | 10.4 | 0.00 | 0.00 | 0.00 | 34 | 1010.1 |
| 20260502220048 | 76 | 327 | 5.2 | 10.4 | 0.00 | 0.00 | 0.00 | 34 | 1010.2 |
| 20260502215545 | 75 | 345 | 5.2 | 10.4 | 0.00 | 0.00 | 0.00 | 35 | 1010.1 |